Regional Weather Roundup
Issued by NWS

Home | Current Version | Previous Version | Text Only | Print | Product List | Glossary On
Versions: 1 2 3 4 5 6 7 8 9 10 11 12 13 14 15 16 17 18 19 20 21 22 23 24 25 26 27 28 29 30 31 32 33 34 35 36 37 38 39 40 41 42 43 44 45 46 47 48 49 50
000
ASUS43 KLMK 111210
RWRKY
KENTUCKY REGIONAL WEATHER ROUNDUP
NATIONAL WEATHER SERVICE LOUISVILLE KY
800 AM EDT FRI JUL 11 2014

NOTE "FAIR" INDICATES FEW OR NO CLOUDS BELOW 12,000 FEET
WITH NO SIGNIFICANT WEATHER AND/OR OBSTRUCTIONS TO VISIBILITY.

KYZ001>023-026-027-061>063-070>075-111300-
WESTERN AND SOUTH CENTRAL KENTUCKY

CITY           SKY/WX    TMP DP  RH WIND       PRES   REMARKS
PADUCAH        SUNNY     69  66  90 CALM      30.15R FOG
HENDERSON      SUNNY     64  61  88 CALM      30.17R
OWENSBORO      SUNNY     68  61  78 CALM      30.18R
HOPKINSVILLE   SUNNY     66  66 100 NE2       30.17R
BOWLING GREEN  SUNNY     69  61  75 CALM      30.17R
GLASGOW        SUNNY     66  60  81 CALM      30.18R
$$

KYZ024-025-028>034-038-045-046-053-111300-
NORTH CENTRAL KENTUCKY

CITY           SKY/WX    TMP DP  RH WIND       PRES   REMARKS
LOUISVILLE/SDF MOSUNNY   69  59  70 N3        30.19R
LOUISVILLE/LOU SUNNY     67  60  78 CALM      30.19R
FORT KNOX      SUNNY     66  60  80 NE5       30.18R
$$

KYZ035>037-039>044-047>052-055>060-089>105-111300-
NORTHEAST KENTUCKY

CITY           SKY/WX    TMP DP  RH WIND       PRES   REMARKS
LEXINGTON      SUNNY     67  59  75 N3        30.20R
COVINGTON      MOSUNNY   66  58  75 N3        30.21R
FRANKFORT      SUNNY     65  58  78 N3        30.19R
$$

KYZ054-064>069-076>088-106>120-111300-
SOUTHEAST KENTUCKY

CITY           SKY/WX    TMP DP  RH WIND       PRES   REMARKS
JACKSON        SUNNY     68  61  78 CALM      30.21R
LONDON         SUNNY     68  63  84 CALM      30.20R
SOMERSET       SUNNY     64  63  94 CALM      30.21R
MIDDLESBORO    FOG       61  61 100 CALM      30.22R VSB 1
MONTICELLO     SUNNY     66  64  94 CALM      30.21R FOG
$$




USA.gov is the U.S. government's official web portal to all federal, state and local government web resources and services.